Flag for Iraq

Past Weather in Halabja, Iraq — Yesterday and Last 2 Weeks

Now
73 °F

Clear.


Feels Like: 76 °F
Forecast: 103 / 70 °F
Wind: 7 mph from West

Location: Shaykh ‘Abbās

Current Time: Aug 4, 2020 at 12:32:38 am

Latest Report: Aug 4, 2020 at 12:00 am


Visibility: 10 mi

Pressure: 29.71 "Hg (27.34 "Hg at 721m altitude)

Humidity: 27%

Dew Point: 37 °F

Location of HalabjaLocation

Past Weather in Halabja — Graph

°F

Halabja Temperature Yesterday

Maximum temperature yesterday: 104 °F (at 1:00 pm)
Minimum temperature yesterday: 68 °F (at 5:00 am)
Average temperature yesterday: 88 °F

High & Low Weather Summary for the Past Weeks

 TemperatureHumidityPressure
High113 °F (Jul 27, 3:00 pm)42% (Jul 26, 6:00 am)29.95 "Hg (Jul 26, 6:00 am)
Low66 °F (Jul 23, 5:00 am)6% (Jul 30, 12:00 pm)29.62 "Hg (Jul 21, 3:00 pm)
Average92 °F20%29.76 "Hg
* Reported Jul 19 10:00 pm — Aug 3 10:00 pm, Halabja. Weather by CustomWeather, © 2020

Note: Actual official high and low records may vary slightly from our data, if they occured in-between our weather recording intervals... More about our weather records

Halabja Weather History for the Previous 24 Hours

Scroll right to see more
 ConditionsComfort  
Time TempWeatherWind HumidityBarometerVisibility
10:00 pm
Mon, Aug 3
81 °FClear.5 mph21%29.71 "Hg10 mi
9:00 pm81 °FClear.5 mph21%29.71 "Hg10 mi
8:00 pm84 °FClear.5 mph19%29.71 "Hg10 mi
7:00 pm93 °FClear.7 mph15%29.68 "Hg10 mi
6:00 pm100 °FSunny.9 mph12%29.65 "Hg10 mi
5:00 pm102 °FSunny.7 mph10%29.65 "Hg10 mi
4:00 pm102 °FSunny.9 mph10%29.68 "Hg10 mi
3:00 pm104 °FSunny.9 mph10%29.68 "Hg10 mi
2:00 pm104 °FSunny.12 mph10%29.71 "Hg10 mi
1:00 pm104 °FSunny.9 mph10%29.74 "Hg10 mi
12:00 pm102 °FSunny.9 mph11%29.74 "Hg10 mi
11:00 am100 °FSunny.9 mph10%29.77 "Hg10 mi
10:00 am99 °FSunny.5 mph13%29.77 "Hg10 mi
9:00 am95 °FSunny.7 mph16%29.80 "Hg10 mi
8:00 am90 °FSunny.1 mph20%29.80 "Hg10 mi
7:00 am84 °FSunny.1 mph23%29.77 "Hg10 mi
6:00 am70 °FSunny.5 mph38%29.77 "Hg10 mi
5:00 am68 °FClear.6 mph38%29.77 "Hg10 mi
4:00 am73 °FClear.5 mph31%29.74 "Hg10 mi
3:00 am73 °FClear.8 mph29%29.74 "Hg10 mi
2:00 am73 °FClear.6 mph31%29.74 "Hg10 mi
1:00 am73 °FClear.9 mph29%29.74 "Hg10 mi
12:00 am73 °FClear.5 mph29%29.74 "Hg10 mi
Weather by CustomWeather, © 2020

See weather overview